User: anonymous   Login
Location: Dannhausen
(51.8650°N, 10.1026°E)
Time: 17:40:28
(UTC+00:00)
Language:

SPOT 5 - Orbit

View from above orbital plane
View from above orbital plane
View from above satellite
View from above satellite

Ground track
Ground track

The orbit data is extracted from the following two-line orbital elements,

1 27421U 02021A   20196.49198619  .00000048  00000-0  21473-4 0  9999
2 27421  98.2705 266.8892 0136016 122.1722 239.2741 14.52043770948679
Epoch (UTC): 14 July 2020 11:48:27
Eccentricity: 0.0136016
inclination: 98.2705°
perigee height: 622 km
apogee height: 815 km
right ascension of ascending node: 266.8892°
argument of perigee: 122.1722°
revolutions per day: 14.52043770
mean anomaly at epoch: 239.2741°
orbit number at epoch: 94867

The dashed part of the orbit path shows where the satellite is in the earth's shadow,  

DLR